[[{"header":{"parameterUnit":"m.s-1","parameterCategory":2,"la1":30.2991,"la2":30.254,"lo1":-89.0895,"lo2":-89.0444,"dy":0.0017,"dx":0.0017,"nx":28,"ny":28,"refTime":"2023-07-20T21:00:00:Z","depth":"0","parameterNumber":2,"parameterNumberName":"U-component_of_CURRENTS"},"data":[0,0,0,0,0,0,0,0,0,0,0,0,0,0,0,0,0,0,0,0,0,0,0,0,0,0,0,0,0,0,0,0,0,0,0,0,0,0,0,0,0,0,0,0,0,0,0,0,0,0,0,0,0,0,0,0,0,0,0.3064,0.3066,0,0.3193,0.3194,0.3195,0.3176,0.3174,0.3172,0.3171,0.3195,0.3197,0.3199,0,0,0,0,0,0,0,0,0,0,0,0,0,0.2918,0.292,0.3064,0.3066,0.3068,0.3193,0.3194,0.3195,0.3176,0.3174,0.3172,0.317,0.3194,0.3197,0.3199,0,0,0,0,0,0,0,0,0,0,0,0,0,0.3002,0.292,0.3064,0.3078,0.3081,0.3192,0.3194,0.3195,0.3177,0.3174,0.3171,0.3169,0.3193,0.3196,0.32,0.3271,0,0,0.321,0.3211,0,0,0,0,0,0,0,0,0.2997,0.3007,0.3074,0.3077,0.3081,0.317,0.3152,0.3217,0.3177,0.3135,0.3171,0.3168,0.3182,0.3186,0.321,0.3272,0.3273,0.321,0.3212,0.3214,0.3215,0,0,0,0,0,0,0,0.2991,0.3002,0.311,0.3076,0.3081,0.3118,0.3125,0.3165,0.3165,0.3138,0.3138,0.3162,0.3182,0.3207,0.321,0.3273,0.321,0.3213,0.3215,0.3216,0.333,0.3331,0,0,0,0,0,0,0.2984,0.2996,0.3106,0.3114,0.3038,0.3122,0.3131,0.314,0.3167,0.3171,0.3164,0.3161,0.3203,0.3206,0.3211,0.3244,0.3214,0.3217,0.3219,0.3329,0.333,0.3331,0,0,0,0,0,0,0.298,0.2991,0.3101,0.3063,0.308,0.3127,0.3138,0.3144,0.3164,0.3189,0.3189,0.3178,0.3201,0.3206,0.3219,0.3246,0.3218,0.3221,0.3328,0.3329,0.3331,0.3343,0,0,0,0,0,0,0.2975,0.2989,0.2996,0.3062,0.3082,0.3157,0.3141,0.3148,0.3185,0.3182,0.3201,0.3201,0.3199,0.3214,0.3223,0.325,0.3224,0.3326,0.3328,0.333,0.3341,0.3345,0.3348,0,0,0,0,0,0.2969,0.2991,0.2995,0.3009,0.3088,0.3159,0.3172,0.3194,0.3188,0.3201,0.3197,0.32,0.3233,0.3218,0.3227,0.3256,0.3325,0.3328,0.333,0.334,0.3344,0.3348,0,0,0,0,0,0,0.2948,0.2995,0.2998,0.3037,0.3089,0.3157,0.3186,0.3204,0.3219,0.3204,0.3213,0.3214,0.3238,0.3249,0.3232,0.3295,0.3282,0.3286,0.3286,0.329,0.3293,0.3311,0.3227,0,0,0,0,0,0.2946,0.2961,0.3021,0.3055,0.3079,0.3134,0.3168,0.318,0.3209,0.3214,0.3232,0.3244,0.3264,0.3272,0.3292,0.3332,0.3325,0.3358,0.3361,0.3363,0.3385,0.3373,0.3377,0.3339,0.3339,0.3339,0,0,0.2943,0.298,0.2984,0.305,0.3091,0.3134,0.3145,0.3194,0.3226,0.3216,0.3255,0.326,0.3276,0.3306,0.332,0.3313,0.3369,0.3366,0.3368,0.3389,0.3376,0.3379,0.3382,0.334,0.334,0.334,0,0,0.2956,0.2983,0.2995,0.3037,0.31,0.314,0.3154,0.3217,0.3236,0.3289,0.3272,0.3294,0.3346,0.335,0.3362,0.3406,0.3386,0.3407,0.344,0.3428,0.3431,0.3433,0.3416,0.3417,0.3408,0.3408,0.3408,0,0.2958,0.2964,0.3016,0.305,0.3078,0.3141,0.3161,0.3218,0.3274,0.3293,0.33,0.3359,0.3379,0.3398,0.3413,0.3417,0.3391,0.3419,0.343,0.3433,0.3435,0.3418,0.3418,0.3409,0.3409,0.3409,0.3409,0,0.2952,0.2978,0.3,0.3046,0.31,0.3124,0.3205,0.3251,0.3296,0.3344,0.3387,0.3412,0.3443,0.3455,0.3459,0.3479,0.3448,0.3432,0.3416,0.3439,0.342,0.342,0.341,0.341,0.3409,0.3409,0,0,0.2921,0.297,0.2977,0.2998,0.3078,0.3129,0.3198,0.3268,0.3304,0.3382,0.342,0.3484,0.3497,0.3512,0.3503,0.3508,0.3513,0.348,0.3479,0.3457,0.3466,0.3318,0.3304,0.3475,0.3475,0.3476,0.344,0,0.2892,0.2914,0.2951,0.3004,0.3035,0.3108,0.3167,0.3252,0.3325,0.3388,0.3446,0.3482,0.3517,0.3512,0.3534,0.3524,0.3516,0.3524,0.3455,0.3454,0.3313,0.3301,0.3221,0.317,0.3441,0.3441,0.3441,0,0.2856,0.2893,0.289,0.2975,0.2991,0.3028,0.3119,0.3179,0.3293,0.3346,0.3413,0.3459,0.3518,0.3521,0.3547,0.3539,0.3515,0.3501,0.3498,0.3363,0.3307,0.3195,0.3161,0.3141,0.3441,0.3441,0.3441,0,0.2784,0.2854,0.2835,0.2859,0.2963,0.2981,0.3038,0.3152,0.3194,0.3306,0.3343,0.3429,0.3458,0.3475,0.3505,0.3514,0.3496,0.35,0.3339,0.3328,0.3252,0.3232,0.3186,0.3485,0.3485,0.3485,0.3485,0,0.2707,0.2721,0.2799,0.2796,0.2827,0.2926,0.2948,0.3033,0.3117,0.3155,0.3298,0.333,0.3443,0.3466,0.3485,0.3414,0.3483,0.3344,0.3305,0.325,0.3231,0.3203,0.3252,0.3484,0.3484,0.3484,0.3484,0,0.2614,0.2629,0.2667,0.2757,0.278,0.2811,0.2881,0.2905,0.3005,0.3053,0.3084,0.3251,0.3303,0.3371,0.3393,0.3353,0.3225,0.3254,0.3179,0.313,0.2944,0.2997,0.2707,0.2656,0.3084,0.308,0.3077,0,0.2539,0.255,0.2632,0.2639,0.2662,0.271,0.2726,0.2831,0.2855,0.2992,0.3001,0.3097,0.3158,0.3158,0.3149,0.3122,0.3071,0.2937,0.2942,0.2911,0.2945,0.2783,0.2754,0.2859,0.2854,0.285,0.2847,0,0.2469,0.2495,0.2517,0.254,0.2548,0.2575,0.2607,0.2612,0.2724,0.2763,0.2829,0.2891,0.2965,0.2949,0.2903,0.2865,0.2822,0.2847,0.2851,0.2787,0.2576,0.2516,0.2913,0.2811,0.2815,0.2818,0.2819,0.2821,0.24,0.2412,0.2426,0.2451,0.2443,0.2424,0.239,0.2431,0.2438,0.2459,0.2605,0.2634,0.2734,0.2718,0.2649,0.2532,0.2561,0.247,0.2546,0.2385,0.2295,0.2587,0.2406,0.2407,0.2408,0.2409,0.241,0,0.2298,0.2305,0.234,0.231,0.2246,0.2298,0.2287,0.2229,0.2172,0.2245,0.2265,0.2351,0.2347,0.2399,0.2383,0.2288,0.2159,0.2232,0.2085,0.2087,0.2397,0.2351,0.2103,0.2103,0.2103,0.2103,0.2103,0.2103,0.2208,0.2177,0.2232,0.2122,0.2092,0.1959,0.1927,0.1876,0.1891,0.1866,0.1896,0.1988,0.2213,0.2285,0.222,0.2159,0.2065,0.1898,0.1939,0.2311,0.2342,0.2371,0.2335,0.2088,0.2089,0.1495,0.1491,0.1489]},{"header":{"parameterUnit":"m.s-1","parameterCategory":2,"la1":30.2991,"la2":30.254,"lo1":-89.0895,"lo2":-89.0444,"dy":0.0017,"dx":0.0017,"nx":28,"ny":28,"refTime":"2023-07-20T21:00:00:Z","depth":"0","parameterNumber":3,"parameterNumberName":"V-component_of_CURRENTS"},"data":[0,0,0,0,0,0,0,0,0,0,0,0,0,0,0,0,0,0,0,0,0,0,0,0,0,0,0,0,0,0,0,0,0,0,0,0,0,0,0,0,0,0,0,0,0,0,0,0,0,0,0,0,0,0,0,0,0,0,0.0205,0.0204,0,0.0112,0.0111,0.0109,0.0082,0.0083,0.0084,0.0084,0.0127,0.0127,0.0127,0,0,0,0,0,0,0,0,0,0,0,0,0,0.0192,0.0193,0.0205,0.0204,0.0203,0.0112,0.0111,0.0109,0.0082,0.0083,0.0084,0.0085,0.0126,0.0127,0.0127,0,0,0,0,0,0,0,0,0,0,0,0,0,0.0156,0.0194,0.0205,0.0181,0.0178,0.0113,0.0111,0.0109,0.0082,0.0083,0.0084,0.0085,0.0126,0.0127,0.0128,0.0109,0,0,0.0129,0.013,0,0,0,0,0,0,0,0,0.0158,0.0156,0.0185,0.0182,0.0179,0.0112,0.0122,0.0116,0.0081,0.0115,0.0084,0.0086,0.0136,0.0135,0.0109,0.0111,0.0113,0.013,0.013,0.013,0.013,0,0,0,0,0,0,0,0.0161,0.0159,0.0165,0.0184,0.018,0.0118,0.0115,0.0119,0.012,0.0112,0.0111,0.0105,0.0135,0.0108,0.0111,0.0113,0.0129,0.013,0.013,0.0131,0.0204,0.0206,0,0,0,0,0,0,0.0186,0.0163,0.0168,0.0163,0.0175,0.0118,0.0115,0.013,0.0117,0.0116,0.0104,0.0104,0.0107,0.011,0.0112,0.0167,0.013,0.0131,0.0131,0.0202,0.0204,0.0206,0,0,0,0,0,0,0.0187,0.0188,0.0172,0.0161,0.0155,0.0119,0.0135,0.0128,0.0113,0.011,0.0111,0.0098,0.0108,0.0111,0.0134,0.0166,0.0131,0.0132,0.0201,0.0203,0.0205,0.0227,0,0,0,0,0,0,0.0187,0.019,0.0198,0.0164,0.0157,0.0147,0.0134,0.0125,0.0108,0.0107,0.0106,0.0109,0.0109,0.0133,0.0135,0.0166,0.0132,0.0199,0.0202,0.0204,0.0225,0.023,0.0235,0,0,0,0,0,0.0187,0.0214,0.02,0.0199,0.0175,0.0148,0.0138,0.0112,0.0107,0.0102,0.0108,0.011,0.0154,0.0134,0.0136,0.0168,0.0197,0.0201,0.0204,0.0222,0.0229,0.0235,0,0,0,0,0,0,0.0206,0.0212,0.0197,0.0221,0.0188,0.0145,0.0139,0.0116,0.0108,0.0111,0.0115,0.0119,0.0155,0.0158,0.0136,0.0202,0.0182,0.0186,0.0196,0.0202,0.0207,0.0239,0.0133,0,0,0,0,0,0.0214,0.0242,0.0214,0.0228,0.022,0.0175,0.0158,0.0133,0.0123,0.0118,0.0125,0.0142,0.0165,0.0181,0.0194,0.0219,0.0219,0.0248,0.0253,0.0258,0.0288,0.0298,0.0306,0.0218,0.0218,0.0218,0,0,0.0213,0.0229,0.0234,0.0233,0.0207,0.0202,0.0168,0.0146,0.0151,0.0128,0.0154,0.0155,0.0176,0.0207,0.0226,0.0217,0.0279,0.0262,0.0265,0.0294,0.0302,0.031,0.0318,0.022,0.022,0.0219,0,0,0.0239,0.025,0.0275,0.0262,0.0237,0.0215,0.0215,0.0179,0.0178,0.0185,0.0184,0.0209,0.0231,0.0257,0.0273,0.0318,0.0302,0.0322,0.0376,0.0384,0.0391,0.0398,0.0387,0.0392,0.0328,0.0328,0.0328,0,0.0228,0.0273,0.0268,0.0287,0.0288,0.0234,0.0244,0.0228,0.0205,0.0228,0.0209,0.0263,0.0266,0.033,0.0343,0.0333,0.0321,0.0344,0.0389,0.0396,0.0402,0.0389,0.0395,0.0329,0.0329,0.0329,0.0329,0,0.0272,0.0295,0.031,0.0331,0.0329,0.0324,0.0311,0.0312,0.0307,0.0302,0.0353,0.0347,0.0391,0.0389,0.0378,0.0434,0.0405,0.0386,0.0368,0.0412,0.0396,0.0401,0.0331,0.0331,0.033,0.033,0,0,0.0264,0.0329,0.0332,0.0354,0.0354,0.0358,0.0387,0.0406,0.0445,0.0428,0.0494,0.0512,0.0504,0.0524,0.0508,0.0512,0.0524,0.0468,0.0468,0.0449,0.0523,0.0486,0.0488,0.0499,0.05,0.0502,0.0486,0,0.0285,0.0352,0.0383,0.0423,0.044,0.0441,0.0485,0.0498,0.0511,0.0558,0.0562,0.0609,0.0557,0.0576,0.0574,0.0549,0.0543,0.0529,0.0494,0.0494,0.0448,0.0496,0.0531,0.0519,0.0491,0.0492,0.0492,0,0.0298,0.0353,0.0409,0.049,0.0504,0.0531,0.0604,0.0632,0.0683,0.0701,0.0735,0.0731,0.0761,0.0696,0.0679,0.0667,0.0607,0.0568,0.0566,0.0537,0.0468,0.0478,0.053,0.0451,0.05,0.0499,0.0499,0,0.028,0.0366,0.0427,0.0443,0.0521,0.057,0.062,0.0676,0.0726,0.0791,0.0832,0.0853,0.087,0.0818,0.0732,0.0709,0.0689,0.0647,0.0557,0.0552,0.0585,0.058,0.0557,0.0632,0.0632,0.0632,0.0632,0,0.0283,0.0328,0.0429,0.045,0.0534,0.0596,0.0685,0.073,0.0822,0.0891,0.0905,0.0956,0.0898,0.0872,0.0779,0.0691,0.0725,0.059,0.056,0.059,0.0587,0.052,0.0501,0.0631,0.0631,0.0631,0.0632,0,0.0244,0.0303,0.0359,0.0471,0.051,0.0566,0.0706,0.0779,0.0864,0.0955,0.0984,0.1039,0.1018,0.0935,0.0854,0.0756,0.0648,0.0619,0.0648,0.0621,0.0466,0.0449,0.0437,0.044,0.0542,0.0541,0.054,0,0.0256,0.0271,0.0352,0.0391,0.0446,0.0551,0.0629,0.0758,0.0844,0.0998,0.1048,0.108,0.1099,0.0982,0.0837,0.0694,0.0627,0.0607,0.0579,0.0486,0.0444,0.042,0.0424,0.0621,0.0621,0.0621,0.0621,0,0.0263,0.0259,0.0314,0.0378,0.0455,0.0551,0.0685,0.0759,0.092,0.1013,0.1134,0.1176,0.1102,0.1008,0.0824,0.0719,0.0601,0.0601,0.0518,0.0531,0.0497,0.0476,0.0578,0.0621,0.0621,0.0621,0.0621,0.0621,0.0257,0.0288,0.0336,0.0405,0.0481,0.0582,0.0656,0.0801,0.0941,0.1104,0.1153,0.1247,0.1154,0.0936,0.0767,0.0544,0.0574,0.0484,0.0476,0.0462,0.0463,0.0552,0.0545,0.0545,0.0545,0.0544,0.0544,0,0.0263,0.0313,0.0384,0.0464,0.0539,0.0579,0.0723,0.0804,0.0946,0.1112,0.1205,0.129,0.11,0.0922,0.064,0.0461,0.0411,0.0381,0.0376,0.039,0.0481,0.048,0.0444,0.0444,0.0444,0.0444,0.0444,0.0444,0.0267,0.0331,0.0389,0.0521,0.0577,0.067,0.0736,0.0837,0.0971,0.1191,0.134,0.1456,0.1488,0.0847,0.0471,0.0372,0.0285,0.0261,0.0216,0.0275,0.0284,0.0293,0.0284,0.0208,0.0208,0.0153,0.0152,0.0151]}],[{"header":{"parameterUnit":"m.s-1","parameterCategory":2,"la1":30.2991,"la2":30.254,"lo1":-89.0895,"lo2":-89.0444,"dy":0.0017,"dx":0.0017,"nx":28,"ny":28,"refTime":"2023-07-20T21:00:00:Z","depth":"2","parameterNumber":2,"parameterNumberName":"U-component_of_CURRENTS"},"data":[0,0,0,0,0,0,0,0,0,0,0,0,0,0,0,0,0,0,0,0,0,0,0,0,0,0,0,0,0,0,0,0,0,0,0,0,0,0,0,0,0,0,0,0,0,0,0,0,0,0,0,0,0,0,0,0,0,0,0.2165,0.2168,0,0.2198,0.2195,0.2192,0.2073,0.2072,0.2072,0.2072,0.2216,0.222,0.2224,0,0,0,0,0,0,0,0,0,0,0,0,0,0.2301,0.2294,0.2165,0.2168,0.2172,0.2198,0.2195,0.2192,0.2073,0.2072,0.2072,0.2072,0.2215,0.222,0.2225,0,0,0,0,0,0,0,0,0,0,0,0,0,0.2242,0.2292,0.2164,0.2144,0.2145,0.2199,0.2195,0.2191,0.2073,0.2072,0.2072,0.2072,0.2214,0.2219,0.2225,0.2265,0,0,0.2243,0.2246,0,0,0,0,0,0,0,0,0.2245,0.2232,0.2143,0.2146,0.2148,0.2164,0.2299,0.2235,0.2073,0.206,0.2072,0.2072,0.2234,0.2238,0.2189,0.2272,0.2278,0.2244,0.2247,0.225,0.2252,0,0,0,0,0,0,0,0.2249,0.2233,0.2139,0.2148,0.2151,0.2241,0.2224,0.2283,0.2121,0.2061,0.2062,0.2126,0.2231,0.2183,0.2193,0.2281,0.2244,0.2249,0.2253,0.2255,0.2528,0.2531,0,0,0,0,0,0,0.2303,0.2233,0.2139,0.2144,0.224,0.2239,0.222,0.2128,0.2118,0.2126,0.2126,0.2121,0.2173,0.2186,0.2199,0.232,0.225,0.2256,0.2259,0.2524,0.2529,0.2533,0,0,0,0,0,0,0.2303,0.2288,0.2138,0.2231,0.2223,0.2239,0.2136,0.213,0.2152,0.2173,0.2175,0.2169,0.2174,0.219,0.221,0.2323,0.2258,0.2264,0.252,0.2525,0.2531,0.2519,0,0,0,0,0,0,0.2303,0.2282,0.2245,0.2228,0.2221,0.2156,0.214,0.2132,0.2206,0.2199,0.2211,0.2217,0.2175,0.22,0.2216,0.233,0.2268,0.2515,0.2522,0.2529,0.2515,0.2524,0.2531,0,0,0,0,0,0.2305,0.2175,0.2237,0.2233,0.2156,0.216,0.2156,0.2151,0.221,0.2176,0.2168,0.222,0.2261,0.2203,0.2222,0.2342,0.2512,0.252,0.2528,0.2511,0.2522,0.2531,0,0,0,0,0,0,0.2188,0.2157,0.2222,0.2087,0.2162,0.2153,0.2126,0.2211,0.2179,0.2199,0.2208,0.221,0.2306,0.2321,0.2261,0.245,0.2425,0.2437,0.2406,0.2417,0.2425,0.2475,0.2273,0,0,0,0,0,0.2176,0.2051,0.2136,0.2037,0.2074,0.2151,0.2175,0.2221,0.222,0.2208,0.2215,0.2268,0.2349,0.2369,0.2413,0.2478,0.2477,0.2593,0.2601,0.2607,0.2666,0.2667,0.2678,0.256,0.256,0.256,0,0,0.2134,0.2086,0.204,0.2014,0.2044,0.2058,0.2144,0.2189,0.2241,0.2243,0.2233,0.2306,0.238,0.2428,0.2483,0.245,0.2635,0.2618,0.2622,0.2679,0.2676,0.2687,0.2697,0.2565,0.2564,0.2563,0,0,0.2025,0.1929,0.1879,0.1884,0.1993,0.2017,0.2076,0.214,0.2196,0.2245,0.2301,0.2413,0.2456,0.2524,0.2582,0.2688,0.2696,0.2754,0.2807,0.2804,0.2812,0.282,0.2784,0.2788,0.2731,0.2731,0.2731,0,0.2066,0.1892,0.1884,0.1849,0.1862,0.2013,0.2041,0.2096,0.217,0.228,0.224,0.2439,0.2512,0.2673,0.2711,0.2716,0.2683,0.2743,0.2808,0.2816,0.2824,0.2785,0.279,0.2731,0.2731,0.2731,0.2731,0,0.1969,0.183,0.1769,0.1743,0.1773,0.1761,0.1913,0.1981,0.2102,0.2236,0.2442,0.2481,0.2608,0.2694,0.2735,0.2903,0.2849,0.2823,0.2761,0.2833,0.2789,0.2794,0.2732,0.2732,0.2732,0.2732,0,0,0.2021,0.1787,0.1749,0.1717,0.1708,0.1735,0.1817,0.2001,0.2118,0.2252,0.2389,0.2614,0.2728,0.2808,0.2898,0.2944,0.2982,0.292,0.2919,0.2849,0.2934,0.27,0.2682,0.2926,0.2929,0.2931,0.2859,0,0.1994,0.184,0.1752,0.1646,0.1591,0.1674,0.1716,0.1924,0.2077,0.2203,0.2475,0.2629,0.2745,0.282,0.289,0.3023,0.3006,0.3004,0.2912,0.2911,0.2663,0.2686,0.2546,0.2454,0.2864,0.2865,0.2866,0,0.1962,0.1803,0.1721,0.1565,0.1578,0.1579,0.1703,0.1789,0.2058,0.22,0.2423,0.2595,0.2856,0.283,0.3033,0.3014,0.2985,0.3017,0.3011,0.282,0.2689,0.2466,0.2448,0.2874,0.2873,0.2873,0.2872,0,0.1993,0.1778,0.1699,0.1633,0.1539,0.1596,0.162,0.1837,0.197,0.2233,0.234,0.2614,0.2754,0.2828,0.2956,0.2999,0.3026,0.306,0.279,0.2771,0.2659,0.2625,0.3059,0.3059,0.306,0.306,0.306,0,0.194,0.1826,0.1695,0.1616,0.1581,0.158,0.1671,0.1764,0.193,0.2139,0.2353,0.2501,0.2759,0.2829,0.2895,0.2852,0.2953,0.2824,0.2747,0.2644,0.2611,0.3003,0.2998,0.3057,0.3058,0.3058,0.3059,0,0.1917,0.1856,0.1705,0.1582,0.1586,0.158,0.1647,0.1776,0.1886,0.2116,0.2223,0.2472,0.2647,0.2729,0.2834,0.2754,0.2737,0.2619,0.2463,0.237,0.2512,0.2508,0.2439,0.243,0.2423,0.2417,0.2412,0,0.1874,0.1772,0.1656,0.1705,0.1649,0.165,0.1752,0.1801,0.1948,0.2136,0.2282,0.2436,0.2574,0.2528,0.2489,0.2416,0.2517,0.2105,0.2194,0.2521,0.2454,0.2462,0.2467,0.2041,0.2033,0.2027,0.2022,0,0.1679,0.1675,0.1573,0.1627,0.173,0.1796,0.1895,0.1916,0.2079,0.2158,0.2298,0.2355,0.2405,0.2304,0.208,0.2027,0.2147,0.1968,0.2348,0.2186,0.213,0.2068,0.2091,0.1965,0.1971,0.1975,0.1978,0.198,0.1551,0.1474,0.1453,0.1522,0.1698,0.1884,0.1855,0.1965,0.1981,0.2023,0.2163,0.212,0.2106,0.1783,0.169,0.1621,0.1786,0.1688,0.1716,0.1749,0.1682,0.1613,0.1338,0.134,0.1342,0.1344,0.1345,0,0.1457,0.1434,0.14,0.1509,0.1692,0.1823,0.1957,0.1884,0.1804,0.1888,0.1866,0.1578,0.1432,0.1486,0.1329,0.1215,0.1303,0.1151,0.1321,0.1372,0.1419,0.1347,0.0908,0.0908,0.0907,0.0906,0,0,0.1417,0.1372,0.1314,0.1456,0.1607,0.1714,0.174,0.1618,0.1572,0.1393,0.133,0.1323,0.138,0.1111,0.1047,0.1009,0.1196,0.0948,0.129,0.1543,0.159,0.1699,0.1636,0,0,0,0,0]},{"header":{"parameterUnit":"m.s-1","parameterCategory":2,"la1":30.2991,"la2":30.254,"lo1":-89.0895,"lo2":-89.0444,"dy":0.0017,"dx":0.0017,"nx":28,"ny":28,"refTime":"2023-07-20T21:00:00:Z","depth":"2","parameterNumber":3,"parameterNumberName":"V-component_of_CURRENTS"},"data":[0,0,0,0,0,0,0,0,0,0,0,0,0,0,0,0,0,0,0,0,0,0,0,0,0,0,0,0,0,0,0,0,0,0,0,0,0,0,0,0,0,0,0,0,0,0,0,0,0,0,0,0,0,0,0,0,0,0,-0.0103,-0.0103,0,-0.0267,-0.027,-0.0274,-0.0352,-0.035,-0.0348,-0.0346,-0.0287,-0.0288,-0.0288,0,0,0,0,0,0,0,0,0,0,0,0,0,-0.004,-0.0041,-0.0103,-0.0103,-0.0103,-0.0266,-0.0271,-0.0275,-0.0352,-0.035,-0.0347,-0.0345,-0.0287,-0.0288,-0.0288,0,0,0,0,0,0,0,0,0,0,0,0,0,-0.0141,-0.0042,-0.0103,-0.0146,-0.015,-0.0266,-0.0271,-0.0276,-0.0353,-0.035,-0.0347,-0.0344,-0.0287,-0.0288,-0.0288,-0.035,0,0,-0.0289,-0.0289,0,0,0,0,0,0,0,0,-0.0135,-0.0146,-0.014,-0.0143,-0.0148,-0.0268,-0.0226,-0.0283,-0.0353,-0.0298,-0.0346,-0.0342,-0.0248,-0.0252,-0.0323,-0.0348,-0.0345,-0.0289,-0.029,-0.029,-0.029,0,0,0,0,0,0,0,-0.0128,-0.014,-0.0189,-0.014,-0.0145,-0.0218,-0.023,-0.0241,-0.03,-0.0303,-0.0303,-0.029,-0.0252,-0.0322,-0.032,-0.0344,-0.0289,-0.029,-0.029,-0.029,-0.0176,-0.0173,0,0,0,0,0,0,-0.006,-0.0133,-0.0184,-0.0192,-0.0111,-0.022,-0.0234,-0.0249,-0.0305,-0.0306,-0.0292,-0.0292,-0.0323,-0.032,-0.0318,-0.0238,-0.029,-0.029,-0.029,-0.0179,-0.0175,-0.0172,0,0,0,0,0,0,-0.0059,-0.0064,-0.0177,-0.0148,-0.0164,-0.022,-0.0239,-0.0253,-0.0276,-0.0295,-0.0296,-0.029,-0.0321,-0.0317,-0.0306,-0.0241,-0.029,-0.0291,-0.0183,-0.0178,-0.0174,-0.0176,0,0,0,0,0,0,-0.0057,-0.0064,-0.0073,-0.0144,-0.0162,-0.0219,-0.024,-0.0258,-0.0265,-0.0267,-0.0294,-0.029,-0.0318,-0.0306,-0.0306,-0.0242,-0.0291,-0.0187,-0.0181,-0.0175,-0.018,-0.0172,-0.0165,0,0,0,0,0,-0.0055,-0.0048,-0.0073,-0.0078,-0.0167,-0.0217,-0.0237,-0.0281,-0.0266,-0.029,-0.0303,-0.0287,-0.0263,-0.0307,-0.0308,-0.0242,-0.019,-0.0183,-0.0176,-0.0184,-0.0174,-0.0165,0,0,0,0,0,0,-0.0031,-0.0056,-0.0085,-0.009,-0.0139,-0.0221,-0.0236,-0.0255,-0.0299,-0.0284,-0.0299,-0.0298,-0.0244,-0.0241,-0.0288,-0.0178,-0.0201,-0.0194,-0.0206,-0.0197,-0.0189,-0.0146,-0.0291,0,0,0,0,0,-0.0026,-0.0031,-0.0076,-0.0089,-0.01,-0.0167,-0.0192,-0.022,-0.0251,-0.0269,-0.0302,-0.0281,-0.0228,-0.0212,-0.0201,-0.018,-0.0173,-0.0113,-0.0106,-0.01,-0.0057,-0.0035,-0.0023,-0.0148,-0.0148,-0.0148,0,0,-0.0027,-0.0033,-0.0044,-0.0084,-0.0131,-0.0164,-0.018,-0.0202,-0.0218,-0.0248,-0.0293,-0.0269,-0.0213,-0.0186,-0.0155,-0.0172,-0.0064,-0.009,-0.0087,-0.0046,-0.0026,-0.0015,-0.0005,-0.0143,-0.0143,-0.0144,0,0,-0.0008,-0.0031,-0.0028,-0.0067,-0.0096,-0.0141,-0.0124,-0.0204,-0.0221,-0.0256,-0.0237,-0.0183,-0.0185,-0.0134,-0.0089,-0.002,-0.0023,0.0016,0.0076,0.0095,0.0104,0.0113,0.0103,0.0111,0.0015,0.0015,0.0015,0,-0.0012,-0.0015,-0.0039,-0.0052,-0.0062,-0.0111,-0.0117,-0.0162,-0.0236,-0.0204,-0.0248,-0.0164,-0.0146,-0.0012,0.0011,-0.0002,-0.0006,0.0018,0.0099,0.0108,0.0117,0.0106,0.0114,0.0016,0.0016,0.0016,0.0016,0,0.0014,-0.0013,-0.0009,-0.0044,-0.0063,-0.008,-0.0113,-0.0144,-0.0155,-0.0165,-0.0075,-0.0089,-0.0012,0.0016,0.0029,0.0148,0.0117,0.0097,0.0058,0.0128,0.0113,0.0121,0.0017,0.0017,0.0017,0.0016,0,0,0.0031,0.0015,0.001,-0.0009,-0.0052,-0.0065,-0.0064,-0.0046,0.0001,-0.005,0.0026,0.0107,0.0126,0.0183,0.0208,0.0231,0.0259,0.0194,0.0194,0.0155,0.028,0.0242,0.0247,0.0233,0.0236,0.0238,0.023,0,0.0041,0.0058,0.005,0.002,0.0002,-0.002,-0.0015,0.0004,0.0022,0.0052,0.0133,0.0208,0.0187,0.0237,0.0258,0.0291,0.029,0.0263,0.0249,0.0249,0.0182,0.026,0.0227,0.0218,0.0238,0.0239,0.024,0,0.005,0.0057,0.0074,0.0058,0.0059,0.0043,0.0095,0.0097,0.0172,0.0201,0.0296,0.0334,0.044,0.0363,0.0428,0.0407,0.0356,0.0337,0.0335,0.0321,0.023,0.0165,0.0233,0.0255,0.0254,0.0253,0.0252,0,0.0069,0.0061,0.0097,0.0079,0.006,0.0089,0.01,0.0161,0.0216,0.0317,0.0384,0.0476,0.0533,0.0515,0.0487,0.0463,0.0498,0.0448,0.0357,0.0351,0.0341,0.0331,0.0453,0.0453,0.0454,0.0454,0.0454,0,0.0076,0.0079,0.0106,0.0091,0.0128,0.0124,0.0201,0.022,0.0314,0.0435,0.0474,0.0571,0.0573,0.0592,0.0527,0.0487,0.0525,0.0406,0.0369,0.0337,0.0327,0.0382,0.0374,0.0453,0.0453,0.0453,0.0453,0,0.0069,0.0098,0.0079,0.0091,0.0116,0.0134,0.0232,0.0318,0.0386,0.0537,0.0588,0.067,0.0715,0.0669,0.064,0.0553,0.0503,0.0449,0.04,0.036,0.0326,0.0318,0.0387,0.0386,0.0385,0.0385,0.0384,0,0.0092,0.0071,0.0067,0.0102,0.011,0.0175,0.0257,0.0335,0.0453,0.0614,0.0708,0.0777,0.0841,0.0763,0.0637,0.0517,0.049,0.0378,0.0343,0.0373,0.033,0.0323,0.0317,0.0307,0.0306,0.0305,0.0304,0,0.006,0.0037,0.0047,0.0101,0.0175,0.0279,0.0405,0.0484,0.0633,0.0742,0.0888,0.0937,0.0888,0.0768,0.0583,0.0493,0.0409,0.0355,0.0429,0.0328,0.0297,0.0254,0.0251,0.0296,0.0297,0.0297,0.0298,0.0298,0.0034,0.0037,0.005,0.0123,0.0239,0.0391,0.0458,0.0613,0.075,0.091,0.0953,0.0998,0.0855,0.0619,0.047,0.0332,0.0366,0.0275,0.0278,0.0283,0.0274,0.0245,0.023,0.023,0.0231,0.0231,0.0231,0,0.0035,0.0066,0.0103,0.0202,0.0355,0.0405,0.0591,0.0661,0.0803,0.0939,0.101,0.0835,0.0688,0.0562,0.0349,0.0207,0.0196,0.0153,0.0159,0.0168,0.0176,0.0162,0.0088,0.0087,0.0086,0.0086,0,0,0.0031,0.0075,0.0106,0.0308,0.0413,0.0571,0.066,0.0737,0.0826,0.0909,0.0936,0.089,0.0741,0.0514,0.0328,0.0229,0.0233,0.0199,0.0328,0.0366,0.0375,0.0258,0.0248,0,0,0,0,0]}],[{"header":{"parameterUnit":"m.s-1","parameterCategory":2,"la1":30.2991,"la2":30.254,"lo1":-89.0895,"lo2":-89.0444,"dy":0.0017,"dx":0.0017,"nx":28,"ny":28,"refTime":"2023-07-20T21:00:00:Z","depth":"4","parameterNumber":2,"parameterNumberName":"U-component_of_CURRENTS"},"data":[0,0,0,0,0,0,0,0,0,0,0,0,0,0,0,0,0,0,0,0,0,0,0,0,0,0,0,0,0,0,0,0,0,0,0,0,0,0,0,0,0,0,0,0,0,0,0,0,0,0,0,0,0,0,0,0,0,0,-0.056,-0.0563,0,-0.0649,-0.0648,-0.0647,-0.067,-0.0671,-0.0673,-0.0675,-0.0806,-0.0808,-0.081,0,0,0,0,0,0,0,0,0,0,0,0,0,-0.0531,-0.0528,-0.056,-0.0564,-0.0567,-0.065,-0.0648,-0.0647,-0.0669,-0.0671,-0.0673,-0.0675,-0.0806,-0.0808,-0.081,0,0,0,0,0,0,0,0,0,0,0,0,0,-0.055,-0.0528,-0.056,-0.0606,-0.0613,-0.065,-0.0648,-0.0647,-0.0669,-0.0671,-0.0674,-0.0676,-0.0805,-0.0808,-0.0811,-0.0778,0,0,-0.082,-0.0821,0,0,0,0,0,0,0,0,-0.0549,-0.0548,-0.0596,-0.0603,-0.0611,-0.0673,-0.0688,-0.0702,-0.0668,-0.0622,-0.0675,-0.0678,-0.078,-0.0785,-0.076,-0.0784,-0.079,-0.082,-0.0822,-0.0823,-0.0824,0,0,0,0,0,0,0,-0.0547,-0.0546,-0.057,-0.06,-0.0609,-0.0667,-0.0668,-0.0689,-0.0667,-0.0626,-0.0634,-0.0682,-0.0781,-0.0757,-0.0764,-0.0792,-0.082,-0.0822,-0.0824,-0.0825,-0.0996,-0.0999,0,0,0,0,0,0,-0.0576,-0.0543,-0.0568,-0.0576,-0.0614,-0.0666,-0.0667,-0.063,-0.0666,-0.0681,-0.068,-0.0683,-0.0751,-0.0761,-0.0769,-0.09,-0.0823,-0.0826,-0.0827,-0.0993,-0.0997,-0.1,0,0,0,0,0,0,-0.0573,-0.0573,-0.0565,-0.0587,-0.0593,-0.0665,-0.0624,-0.0631,-0.068,-0.0712,-0.0722,-0.0734,-0.0753,-0.0765,-0.0783,-0.09,-0.0827,-0.083,-0.099,-0.0995,-0.0998,-0.1056,0,0,0,0,0,0,-0.057,-0.0569,-0.0557,-0.0585,-0.0594,-0.0611,-0.0624,-0.0632,-0.0714,-0.072,-0.076,-0.077,-0.0756,-0.0778,-0.0786,-0.0903,-0.0832,-0.0987,-0.0992,-0.0997,-0.105,-0.1061,-0.1071,0,0,0,0,0,-0.0567,-0.0553,-0.0553,-0.056,-0.0569,-0.0614,-0.062,-0.0667,-0.0716,-0.0721,-0.0724,-0.0773,-0.0822,-0.0778,-0.0788,-0.091,-0.0984,-0.0991,-0.0997,-0.1046,-0.1059,-0.1071,0,0,0,0,0,0,-0.0553,-0.0557,-0.0557,-0.0548,-0.0592,-0.0628,-0.067,-0.0707,-0.0713,-0.0733,-0.0751,-0.0757,-0.0837,-0.0849,-0.0803,-0.0978,-0.0937,-0.0945,-0.0971,-0.0984,-0.0994,-0.1003,-0.0834,0,0,0,0,0,-0.054,-0.0524,-0.0552,-0.056,-0.0584,-0.0635,-0.0673,-0.0699,-0.0724,-0.0733,-0.0753,-0.08,-0.0858,-0.0896,-0.0917,-0.0981,-0.0922,-0.1086,-0.1096,-0.1105,-0.112,-0.11,-0.1108,-0.1021,-0.102,-0.102,0,0,-0.0572,-0.0558,-0.0568,-0.056,-0.0599,-0.0618,-0.0658,-0.0726,-0.075,-0.0748,-0.0776,-0.0822,-0.0877,-0.0939,-0.0987,-0.0974,-0.1082,-0.1113,-0.1119,-0.1131,-0.1107,-0.1115,-0.1122,-0.1025,-0.1024,-0.1023,0,0,-0.0614,-0.0583,-0.0587,-0.0601,-0.0657,-0.066,-0.07,-0.0739,-0.0764,-0.0785,-0.0823,-0.091,-0.0962,-0.1024,-0.1071,-0.1157,-0.1126,-0.1223,-0.1296,-0.1275,-0.1281,-0.1286,-0.1133,-0.1124,-0.1242,-0.1242,-0.1242,0,-0.0645,-0.0625,-0.0613,-0.0613,-0.0652,-0.0689,-0.0722,-0.0732,-0.0769,-0.0807,-0.0807,-0.0955,-0.1006,-0.1143,-0.1186,-0.1188,-0.1116,-0.1239,-0.1284,-0.1288,-0.1292,-0.1135,-0.1124,-0.1245,-0.1245,-0.1244,-0.1244,0,-0.0679,-0.0676,-0.0697,-0.0674,-0.0694,-0.0741,-0.0756,-0.0782,-0.0829,-0.0855,-0.0983,-0.1024,-0.1131,-0.1202,-0.1224,-0.1346,-0.1257,-0.1281,-0.1241,-0.1304,-0.1133,-0.1121,-0.125,-0.1249,-0.1248,-0.1247,0,0,-0.0709,-0.0716,-0.0727,-0.0729,-0.0733,-0.0752,-0.0789,-0.084,-0.0917,-0.0947,-0.1054,-0.1184,-0.1247,-0.1307,-0.1384,-0.1407,-0.136,-0.1378,-0.1375,-0.1201,-0.1208,-0.1112,-0.1086,-0.139,-0.1391,-0.1392,-0.1043,0,-0.0751,-0.0755,-0.0754,-0.079,-0.0794,-0.0821,-0.0866,-0.0909,-0.0961,-0.1042,-0.1142,-0.1238,-0.1277,-0.1365,-0.1401,-0.1386,-0.1346,-0.1445,-0.1196,-0.1186,-0.1076,-0.1079,-0.1394,-0.1034,-0.103,-0.1028,-0.1027,0,-0.0773,-0.076,-0.0803,-0.0837,-0.0855,-0.0908,-0.0995,-0.103,-0.1135,-0.1173,-0.128,-0.1323,-0.1399,-0.142,-0.1355,-0.1411,-0.1322,-0.1275,-0.126,-0.1155,-0.1073,-0.0984,-0.1003,-0.1005,-0.1007,-0.1008,-0.101,0,-0.0749,-0.0797,-0.0832,-0.0839,-0.088,-0.0967,-0.1025,-0.1122,-0.1157,-0.1264,-0.129,-0.1369,-0.1397,-0.1336,-0.1269,-0.1287,-0.115,-0.1137,-0.0931,-0.0914,-0.1075,-0.1074,-0.106,-0.106,-0.1061,-0.1062,-0.1063,0,-0.0743,-0.078,-0.0864,-0.0857,-0.0976,-0.101,-0.1143,-0.1207,-0.1301,-0.1271,-0.1381,-0.1339,-0.1387,-0.1321,-0.1239,-0.1037,-0.1091,-0.0921,-0.0848,-0.1093,-0.1101,-0.1057,-0.1062,-0.1049,-0.1051,-0.1054,-0.1056,0,-0.0714,-0.0765,-0.0806,-0.0899,-0.0957,-0.1059,-0.1187,-0.1234,-0.1328,-0.1291,-0.1293,-0.1297,-0.1116,-0.1135,-0.0997,-0.0955,-0.0804,-0.0724,-0.0912,-0.0858,-0.0546,-0.0558,-0.0358,-0.0352,-0.0347,-0.0343,-0.034,0,-0.0696,-0.0717,-0.0811,-0.0875,-0.0959,-0.1095,-0.1152,-0.1253,-0.1219,-0.1161,-0.108,-0.0999,-0.0942,-0.0687,-0.0712,-0.0531,-0.0551,-0.0481,-0.0594,-0.0539,-0.0488,-0.0508,-0.0525,-0.0332,-0.0331,-0.033,-0.0329,0,-0.0663,-0.0729,-0.073,-0.0838,-0.0949,-0.099,-0.1054,-0.102,-0.0987,-0.1068,-0.0814,-0.073,-0.0557,-0.0476,-0.0441,-0.0312,-0.0549,-0.043,-0.0438,-0.0542,-0.0506,-0.0464,-0.0488,-0.0312,-0.0315,-0.0316,-0.0317,0,-0.0644,-0.0674,-0.069,-0.0788,-0.0875,-0.0836,-0.09,-0.0792,-0.0777,-0.0688,-0.0544,-0.0455,-0.044,-0.0344,-0.0248,-0.0205,-0.0142,-0.0165,-0.0186,-0.0204,-0.0342,-0.0285,0.0059,0,0,0,0,0,-0.0611,-0.0605,-0.0642,-0.0677,-0.0721,-0.0769,-0.0762,-0.0778,-0.0723,-0.0496,-0.0527,-0.0316,-0.0167,-0.0151,-0.0052,-0.0141,-0.0166,-0.0029,-0.0211,-0.022,-0.0239,-0.0432,0,0,0,0,0,0,-0.0597,-0.0612,-0.0583,-0.053,-0.0525,-0.0536,-0.0534,-0.0503,-0.0387,-0.035,-0.0281,-0.0278,-0.0168,-0.019,-0.0035,-0.0028,-0.0128,0.0002,0.0004,-0.0209,-0.0227,-0.0242,-0.0447,0,0,0,0,0]},{"header":{"parameterUnit":"m.s-1","parameterCategory":2,"la1":30.2991,"la2":30.254,"lo1":-89.0895,"lo2":-89.0444,"dy":0.0017,"dx":0.0017,"nx":28,"ny":28,"refTime":"2023-07-20T21:00:00:Z","depth":"4","parameterNumber":3,"parameterNumberName":"V-component_of_CURRENTS"},"data":[0,0,0,0,0,0,0,0,0,0,0,0,0,0,0,0,0,0,0,0,0,0,0,0,0,0,0,0,0,0,0,0,0,0,0,0,0,0,0,0,0,0,0,0,0,0,0,0,0,0,0,0,0,0,0,0,0,0,0.0289,0.0289,0,0.0288,0.0288,0.0288,0.0359,0.0361,0.0363,0.0365,0.043,0.043,0.043,0,0,0,0,0,0,0,0,0,0,0,0,0,0.0315,0.0314,0.0289,0.0289,0.029,0.0288,0.0288,0.0288,0.0358,0.0361,0.0364,0.0366,0.043,0.043,0.043,0,0,0,0,0,0,0,0,0,0,0,0,0,0.0305,0.0314,0.0289,0.0327,0.0331,0.0288,0.0288,0.0288,0.0358,0.0361,0.0364,0.0367,0.043,0.043,0.043,0.0362,0,0,0.0428,0.0428,0,0,0,0,0,0,0,0,0.0305,0.0304,0.0321,0.0324,0.0328,0.033,0.0321,0.0317,0.0357,0.0344,0.0365,0.0369,0.0402,0.0404,0.0392,0.0365,0.0368,0.0428,0.0428,0.0428,0.0428,0,0,0,0,0,0,0,0.0306,0.0304,0.0286,0.0321,0.0326,0.0332,0.0334,0.032,0.0354,0.0346,0.0352,0.0355,0.0405,0.0392,0.0394,0.0369,0.0428,0.0428,0.0428,0.0428,0.0467,0.0469,0,0,0,0,0,0,0.031,0.0304,0.0286,0.0286,0.0328,0.0329,0.0331,0.0323,0.0353,0.0361,0.0352,0.0359,0.0391,0.0394,0.0397,0.0411,0.0428,0.0428,0.0427,0.0466,0.0468,0.0469,0,0,0,0,0,0,0.031,0.0308,0.0286,0.0299,0.0297,0.0326,0.0316,0.0322,0.0336,0.0358,0.0367,0.0365,0.0394,0.0397,0.0403,0.0411,0.0427,0.0427,0.0465,0.0467,0.0468,0.038,0,0,0,0,0,0,0.0311,0.0308,0.0306,0.0298,0.0296,0.027,0.0313,0.032,0.0334,0.0342,0.0371,0.0379,0.0397,0.0404,0.0403,0.0411,0.0427,0.0463,0.0465,0.0468,0.0381,0.0379,0.0377,0,0,0,0,0,0.0312,0.0309,0.0305,0.0304,0.0291,0.0269,0.0267,0.0298,0.0331,0.0325,0.0352,0.0379,0.0422,0.0402,0.0401,0.041,0.0462,0.0465,0.0468,0.0382,0.0379,0.0377,0,0,0,0,0,0,0.032,0.0315,0.0312,0.0307,0.0288,0.0283,0.0295,0.0298,0.0309,0.033,0.0359,0.0366,0.0389,0.041,0.0389,0.0439,0.046,0.0463,0.0396,0.0393,0.0391,0.0382,0.0426,0,0,0,0,0,0.0314,0.0303,0.0295,0.0279,0.0289,0.0286,0.0286,0.0289,0.0297,0.0308,0.0315,0.0353,0.0392,0.0401,0.0426,0.0416,0.0433,0.0439,0.0437,0.0434,0.0433,0.0445,0.0441,0.0479,0.0479,0.0479,0,0,0.0316,0.0302,0.0301,0.0278,0.0282,0.0255,0.0296,0.0291,0.026,0.0309,0.0286,0.0333,0.0391,0.0401,0.0415,0.042,0.0435,0.0438,0.0434,0.0435,0.0447,0.0443,0.0439,0.0481,0.048,0.048,0,0,0.0293,0.0303,0.029,0.0263,0.025,0.0245,0.0245,0.0231,0.024,0.0208,0.0267,0.0308,0.0325,0.0368,0.0399,0.0396,0.0426,0.0431,0.0393,0.0404,0.0399,0.0396,0.0407,0.0405,0.0422,0.0422,0.0422,0,0.029,0.0253,0.0278,0.0238,0.0214,0.024,0.02,0.0197,0.0171,0.0171,0.0202,0.0269,0.0311,0.0353,0.0372,0.0386,0.04,0.0387,0.0395,0.0392,0.039,0.0402,0.0401,0.0418,0.0419,0.0419,0.042,0,0.0239,0.0206,0.02,0.0153,0.0134,0.0101,0.01,0.0084,0.0102,0.0096,0.0135,0.0194,0.0246,0.0278,0.0323,0.0351,0.0369,0.0387,0.0385,0.0379,0.0395,0.0395,0.0413,0.0414,0.0415,0.0416,0,0,0.0235,0.0175,0.0168,0.012,0.0079,0.0052,0.0025,0.0005,-0.0005,0.001,0.001,0.01,0.0159,0.0203,0.0275,0.0291,0.0293,0.0333,0.0336,0.0315,0.0316,0.0245,0.024,0.0305,0.0305,0.0305,0.0329,0,0.018,0.0081,0.0073,-0.0021,-0.0064,-0.0063,-0.0097,-0.0113,-0.0095,-0.0093,0.0004,0.0047,0.0125,0.0174,0.0202,0.0277,0.0293,0.0286,0.0352,0.0354,0.0267,0.0237,0.0305,0.0329,0.0329,0.0329,0.0329,0,0.0141,0.0059,-0.0036,-0.0123,-0.0132,-0.0176,-0.0212,-0.0237,-0.0208,-0.018,-0.0112,-0.004,0.0036,0.01,0.0195,0.0187,0.0251,0.0297,0.0299,0.0263,0.0283,0.0345,0.033,0.033,0.033,0.033,0.033,0,0.0118,0.0002,-0.0083,-0.0127,-0.0218,-0.024,-0.0258,-0.0259,-0.0265,-0.021,-0.0199,-0.0106,-0.0045,0.0038,0.0168,0.0176,0.0255,0.0271,0.0264,0.026,0.0355,0.0359,0.0321,0.0321,0.0321,0.0321,0.0321,0,0.007,-0.0005,-0.0103,-0.0162,-0.025,-0.0279,-0.0321,-0.0316,-0.0302,-0.0301,-0.022,-0.0197,-0.0058,0.0014,0.0127,0.0193,0.0225,0.0245,0.0252,0.0321,0.0321,0.0355,0.0359,0.0322,0.0321,0.0321,0.0321,0,0.0052,-0.0,-0.0119,-0.0234,-0.0257,-0.0312,-0.0349,-0.0382,-0.0353,-0.0344,-0.0319,-0.0266,-0.0195,-0.0065,0.0062,0.0121,0.0208,0.0234,0.0296,0.031,0.0213,0.0213,0.0185,0.0182,0.018,0.0178,0.0177,0,0.0022,-0.0037,-0.0172,-0.0222,-0.0271,-0.0342,-0.0383,-0.0384,-0.0395,-0.0384,-0.0376,-0.0333,-0.0277,-0.014,-0.0036,0.0121,0.0156,0.0195,0.02,0.0184,0.0195,0.0198,0.0201,0.0173,0.0173,0.0172,0.0172,0,-0.0057,-0.0084,-0.0179,-0.0284,-0.0338,-0.041,-0.0444,-0.0433,-0.0423,-0.0439,-0.0392,-0.0336,-0.0286,-0.0179,-0.0058,0.0062,0.0158,0.0174,0.0179,0.0183,0.0171,0.0184,0.0189,0.0164,0.0165,0.0166,0.0167,0,-0.0099,-0.0184,-0.0271,-0.0335,-0.0394,-0.0412,-0.0442,-0.0445,-0.0441,-0.0393,-0.0398,-0.0328,-0.0302,-0.0214,-0.0101,-0.0007,0.0001,0.005,0.0062,0.007,0.0024,-0.0009,-0.008,0,0,0,0,0,-0.0164,-0.023,-0.0315,-0.0366,-0.0405,-0.0416,-0.046,-0.0478,-0.0452,-0.0411,-0.0381,-0.032,-0.0226,-0.0212,-0.0128,-0.017,0.0003,-0.0077,0.0064,0.0123,0.0132,0.0089,0,0,0,0,0,0,-0.0207,-0.0303,-0.0329,-0.0334,-0.0341,-0.0391,-0.0386,-0.0395,-0.0354,-0.0334,-0.0276,-0.0297,-0.0199,-0.0231,-0.0111,-0.0102,-0.0007,-0.0049,-0.0048,0.0119,0.0126,0.0133,0.0092,0,0,0,0,0]}]]